Wind_Speed
20 21 22 21 20 19 19 19 19 19 19 17 16 15 14 14 14 13 14 14 14 15 16 17 18 19 20 20 20 20 21 23 23 23 24 24 24 25 24 24 25 25 25 24
21 21 22 22 20 20 20 20 19 19 19 17 17 16 16 16 15 14 15 16 16 17 18 19 20 21 21 22 21 22 23 24 24 24 24 25 25 25 24 25 24 25 25 25
22 22 22 22 20 20 21 21 20 20 19 17 17 18 17 16 16 15 15 16 17 19 20 21 21 21 21 22 22 23 24 24 25 25 26 25 25 25 25 26 26 26 26 26
24 24 23 22 20 20 21 20 20 20 20 19 19 18 17 17 17 17 17 18 19 20 20 20 21 21 22 23 24 24 25 25 26 26 26 26 26 27 27 27 27 27 26 27
24 25 23 21 20 20 21 21 21 20 19 19 18 18 18 18 19 19 20 20 20 21 21 21 21 22 23 24 25 25 26 26 27 27 27 27 28 28 28 28 28 28 28 28
25 25 24 23 22 21 21 21 21 21 21 21 20 20 19 20 21 21 21 21 21 21 21 21 22 23 24 25 26 27 28 28 28 28 28 28 28 29 29 29 29 29 30 30
27 27 26 24 22 22 22 21 21 21 21 21 21 21 21 21 21 20 20 21 21 22 23 23 24 24 26 26 27 28 29 29 30 30 30 30 30 30 30 31 30 30 30 30
27 27 25 24 23 23 22 21 21 20 19 20 20 19 20 20 20 21 21 21 22 23 23 24 25 26 27 28 29 29 30 30 31 31 30 30 30 31 31 31 31 31 31 31
27 26 25 24 23 22 22 21 19 20 20 20 20 19 19 19 20 22 23 23 24 24 25 26 27 27 28 29 29 30 31 31 32 32 31 31 32 32 32 31 31 32 32 32
28 27 26 25 24 23 23 21 20 20 20 21 21 21 21 21 22 24 25 26 27 26 27 27 28 29 29 29 30 31 32 32 33 32 32 33 33 33 33 32 31 31 32 31
28 28 27 26 25 24 24 23 22 21 22 22 21 22 23 23 24 25 26 27 27 27 27 28 29 29 30 30 31 32 33 33 33 33 33 33 32 33 33 33 33 32 32 32
29 29 28 27 26 25 25 25 25 24 24 25 24 24 25 25 26 26 26 26 26 27 27 28 29 29 29 30 31 32 33 33 33 33 33 33 33 33 33 33 33 32 32 31
29 29 28 27 26 26 25 25 25 25 26 26 26 26 26 26 26 26 26 26 27 28 28 28 29 29 30 31 32 33 33 34 34 34 33 33 33 33 33 32 32 31 30 30
30 29 28 27 27 27 27 26 26 27 27 27 26 26 26 26 26 27 27 28 29 29 29 29 30 30 31 32 32 33 34 34 34 33 33 33 33 32 31 31 30 30 29 29
30 30 29 28 28 28 27 27 27 27 27 26 26 26 26 26 27 27 28 29 30 30 30 30 31 32 32 32 33 33 34 33 33 33 33 33 32 31 31 30 30 29 29 29
30 29 29 29 29 28 28 28 28 28 27 26 26 26 26 27 28 29 29 30 30 31 31 31 31 32 33 33 33 33 33 33 32 32 32 32 32 31 30 30 29 29 29 29
29 29 29 30 29 29 28 28 28 28 28 27 27 27 28 29 29 29 30 30 31 31 31 31 31 32 32 33 33 33 33 32 31 31 31 31 31 31 30 29 29 29 28 28
27 28 28 28 28 28 28 28 28 28 28 28 28 29 29 29 29 29 29 30 30 30 30 31 31 32 32 32 32 32 32 31 30 30 30 30 30 29 29 29 29 29 28 27
26 28 27 27 28 28 28 28 28 28 28 28 28 28 28 28 29 29 29 30 30 30 30 31 31 31 31 31 31 31 30 29 29 30 30 30 29 28 28 28 28 28 27 26
25 26 27 28 28 29 28 27 27 28 27 28 28 28 28 28 28 29 29 30 30 30 30 30 30 30 30 30 29 29 28 28 28 29 29 28 27 27 27 27 27 26 25 25
25 25 26 26 26 26 26 26 26 27 27 27 27 27 28 28 28 29 29 29 29 29 29 29 29 28 28 28 28 28 28 28 28 28 27 26 26 26 26 26 26 24 23 23
24 24 25 25 25 26 27 27 26 27 27 26 26 27 27 27 28 28 28 28 28 27 27 27 27 27 27 27 27 27 28 28 28 27 26 25 25 25 25 25 24 23 23 24
24 24 24 24 25 25 26 26 26 25 26 26 27 27 27 27 26 26 26 26 27 27 27 26 26 26 26 26 26 27 27 27 28 27 25 25 25 25 24 24 24 23 23 23
23 23 23 24 23 23 23 24 24 24 24 24 25 25 25 25 25 25 26 26 26 26 26 26 26 26 26 26 26 26 26 27 27 26 26 25 24 24 24 24 24 23 22 22
21 22 22 21 21 21 21 21 20 21 22 22 23 23 24 24 24 24 25 25 25 25 25 25 25 25 25 25 25 25 25 25 25 24 24 24 23 23 24 24 23 23 23 23
20 19 19 19 19 19 19 19 19 20 21 21 22 22 23 23 23 23 24 24 25 25 25 25 25 25 25 25 25 25 25 25 24 24 23 23 23 23 23 23 23 23 23 22
18 18 18 19 19 19 19 19 20 20 21 22 22 22 22 22 22 22 23 24 24 24 24 24 24 24 24 24 24 24 24 24 24 24 24 23 23 23 24 23 23 23 23 22
Wind_Direction
248 249 249 252 256 259 261 263 268 271 274 277 275 274 274 277 276 274 274 277 280 283 286 291 295 298 299 300 302 304 306 308 307 305 306 305 304 304 302 303 304 303 304 304
248 249 250 253 256 259 261 263 266 270 272 275 275 276 276 277 278 275 277 280 281 282 286 289 294 298 299 300 303 305 306 307 307 306 306 305 305 304 302 302 305 304 303 303
253 254 251 251 255 260 262 264 267 269 271 275 277 277 276 278 276 276 280 285 285 285 286 287 291 295 299 303 305 306 306 307 307 306 306 305 304 305 305 305 304 303 303 301
253 254 254 253 254 257 260 261 264 268 270 271 273 275 273 274 279 280 282 287 287 289 289 292 294 296 299 301 302 304 305 306 305 305 305 304 305 305 305 304 303 302 302 301
252 255 257 255 255 259 262 262 263 267 270 270 269 272 273 275 280 283 285 286 286 288 289 291 295 298 298 300 303 304 305 305 305 305 304 304 304 303 303 303 302 300 300 300
250 254 258 259 260 262 265 265 265 266 269 270 271 272 274 274 278 284 283 287 289 289 289 291 295 298 299 300 303 305 305 305 304 304 304 304 303 302 301 300 301 300 300 299
251 254 257 259 261 265 267 269 268 269 270 272 275 274 274 275 278 284 286 287 286 287 290 292 293 296 298 299 301 304 304 304 305 304 303 303 303 302 301 301 300 300 300 300
251 253 256 258 260 262 267 268 268 269 271 274 273 274 274 275 280 285 288 289 289 290 292 293 293 294 296 298 301 303 303 304 304 304 304 303 302 302 301 301 300 300 300 299
251 253 256 259 261 263 265 266 267 269 271 273 274 275 275 278 282 285 286 289 292 293 293 293 294 295 296 299 301 303 303 303 303 303 303 302 301 301 302 301 300 300 300 299
250 251 254 258 260 262 265 268 269 270 272 272 273 275 277 279 282 284 285 287 291 292 295 295 295 295 298 300 301 303 303 302 302 303 302 301 301 301 301 301 300 300 300 300
250 252 255 257 259 262 265 267 267 269 271 273 276 277 278 281 283 285 287 288 289 292 295 296 296 298 300 301 302 303 303 304 303 302 302 302 302 303 303 302 301 301 301 301
250 252 253 255 257 261 263 265 265 267 271 273 275 276 279 280 282 283 286 288 291 294 295 297 298 300 301 303 304 304 305 304 303 303 302 302 302 303 303 302 301 301 300 300
249 250 251 253 257 259 261 262 265 268 270 272 274 275 276 278 282 286 288 291 293 296 298 299 300 301 302 303 304 304 304 303 302 303 303 303 304 303 302 302 302 300 300 299
246 248 250 253 257 259 260 261 264 267 269 271 273 275 277 279 283 286 289 291 293 296 298 299 300 301 302 302 303 304 303 303 302 303 303 304 305 305 303 302 301 301 300 299
245 247 250 253 255 256 258 261 265 267 269 271 274 277 279 281 284 287 289 292 294 296 296 298 299 300 301 302 303 303 303 303 303 303 303 304 305 306 305 304 302 301 301 300
245 248 250 251 253 256 260 263 264 266 268 271 275 277 280 282 286 288 290 292 294 296 297 298 299 300 300 300 301 302 302 303 303 303 303 304 305 305 305 304 303 302 300 299
246 249 252 254 256 258 260 263 265 266 268 271 275 278 282 284 287 290 292 294 295 296 297 298 299 300 300 301 301 302 302 302 302 303 304 304 304 305 304 304 304 303 302 301
249 250 253 255 255 257 260 262 265 267 270 273 277 280 283 285 288 290 292 293 295 296 297 298 298 300 301 302 303 303 302 302 303 304 305 305 305 305 304 304 305 304 303 302
247 249 252 253 255 257 261 262 265 268 271 274 277 280 283 285 287 288 290 292 294 296 298 300 301 302 303 305 305 304 303 304 305 306 306 307 307 307 305 305 305 305 303 302
248 249 251 254 256 258 259 262 266 270 272 274 277 280 282 284 286 288 290 292 294 296 298 300 302 303 305 305 305 305 306 306 306 306 307 307 307 307 306 305 305 304 303 302
249 251 253 254 256 259 261 264 267 270 271 273 276 279 281 285 287 288 289 291 294 297 299 301 303 304 304 305 306 306 307 307 307 307 305 305 306 306 306 306 306 304 304 304
253 255 256 256 257 260 263 265 267 269 271 274 276 279 282 285 287 288 291 293 295 297 299 301 302 304 304 304 305 307 308 309 309 308 306 305 306 306 306 307 306 304 305 305
253 256 259 261 261 263 264 265 267 270 272 275 277 280 283 285 287 290 292 295 297 298 299 300 302 303 304 305 306 307 308 309 309 307 307 307 307 306 307 308 308 307 306 307
255 258 261 263 263 263 264 266 268 270 273 276 278 280 283 286 288 289 291 293 296 297 298 298 300 303 304 305 306 307 308 309 309 309 307 309 310 309 309 310 311 310 308 309
256 259 261 262 264 265 264 266 268 272 275 278 280 282 284 286 287 288 290 293 295 297 299 300 300 302 304 305 306 307 308 309 310 311 312 311 311 313 313 313 312 310 309 310
256 258 259 261 264 266 268 269 271 273 275 278 281 283 284 285 286 287 290 292 294 296 297 298 300 302 303 304 306 307 308 309 310 309 310 311 311 311 311 312 313 313 312 311
255 258 260 262 265 266 269 271 271 274 277 281 283 284 286 288 288 289 291 293 294 295 296 298 301 302 303 305 306 307 307 308 309 310 311 312 313 312 312 311 312 313 312 311
Height
5865 5867 5868 5869 5871 5872 5873 5874 5874 5876 5876 5877 5877 5878 5877 5877 5876 5875 5874 5874 5873 5873 5872 5870 5868 5866 5864 5862 5859 5857 5854 5852 5850 5847 5845 5842 5840 5837 5833 5831 5828 5826 5824 5821
5860 5862 5863 5865 5866 5868 5869 5870 5870 5871 5872 5872 5873 5873 5873 5873 5872 5871 5871 5870 5869 5868 5867 5866 5864 5862 5859 5857 5855 5852 5850 5847 5845 5842 5839 5837 5834 5831 5827 5825 5823 5820 5818 5815
5855 5857 5858 5860 5863 5864 5865 5865 5866 5867 5868 5868 5868 5868 5868 5868 5868 5867 5867 5866 5865 5864 5862 5860 5858 5856 5854 5852 5850 5847 5845 5842 5839 5836 5833 5831 5828 5824 5822 5819 5817 5814 5811 5809
5850 5852 5853 5858 5858 5859 5860 5861 5862 5862 5863 5864 5864 5864 5863 5864 5863 5863 5862 5861 5860 5858 5857 5855 5853 5851 5849 5847 5844 5842 5839 5837 5834 5831 5828 5825 5822 5819 5816 5813 5810 5807 5805 5802
5845 5846 5848 5851 5853 5854 5855 5856 5857 5858 5858 5858 5859 5859 5859 5859 5858 5858 5858 5856 5855 5853 5851 5849 5847 5845 5843 5841 5839 5836 5833 5830 5828 5825 5822 5819 5815 5812 5809 5806 5803 5800 5798 5795
5839 5841 5843 5848 5849 5849 5851 5851 5853 5853 5853 5853 5854 5854 5855 5854 5854 5853 5852 5851 5849 5847 5845 5844 5842 5840 5838 5835 5833 5830 5827 5824 5821 5818 5815 5812 5809 5805 5802 5799 5796 5793 5790 5788
5834 5836 5838 5842 5843 5844 5847 5848 5847 5847 5848 5848 5849 5849 5849 5849 5848 5847 5846 5845 5843 5842 5840 5838 5836 5834 5832 5829 5826 5823 5820 5817 5814 5811 5808 5804 5801 5798 5795 5791 5789 5786 5783 5780
5828 5830 5835 5836 5837 5839 5841 5841 5841 5841 5842 5842 5843 5842 5843 5843 5842 5841 5840 5839 5837 5836 5834 5832 5830 5828 5825 5823 5820 5817 5813 5810 5807 5803 5800 5797 5794 5790 5787 5784 5781 5777 5774 5771
5823 5827 5828 5830 5831 5833 5834 5835 5835 5836 5836 5837 5837 5837 5837 5837 5836 5835 5834 5833 5831 5829 5827 5825 5823 5820 5818 5815 5812 5809 5806 5803 5799 5796 5792 5789 5786 5782 5779 5775 5772 5769 5766 5762
5816 5819 5821 5823 5825 5826 5828 5828 5829 5830 5830 5831 5831 5831 5831 5831 5830 5829 5828 5826 5824 5822 5821 5818 5816 5813 5811 5808 5805 5802 5798 5795 5791 5788 5784 5781 5777 5774 5770 5767 5764 5760 5757 5754
5809 5812 5814 5816 5818 5820 5821 5822 5823 5824 5824 5825 5825 5825 5825 5825 5824 5823 5821 5819 5817 5815 5813 5811 5808 5806 5803 5800 5797 5793 5790 5786 5783 5779 5776 5772 5768 5765 5761 5758 5754 5751 5748 5745
5802 5805 5807 5810 5812 5813 5814 5815 5817 5817 5818 5818 5818 5818 5818 5817 5816 5815 5813 5812 5810 5808 5806 5804 5801 5798 5795 5792 5789 5785 5782 5778 5774 5771 5767 5764 5760 5756 5752 5749 5746 5742 5740 5737
5795 5798 5800 5802 5804 5806 5807 5809 5810 5811 5811 5811 5811 5811 5811 5810 5809 5808 5806 5805 5803 5801 5798 5796 5793 5790 5787 5784 5780 5777 5774 5770 5766 5763 5759 5755 5751 5748 5744 5741 5737 5734 5731 5728
5788 5791 5793 5796 5798 5799 5800 5801 5803 5804 5804 5804 5804 5804 5804 5803 5802 5801 5799 5797 5795 5793 5790 5788 5785 5782 5779 5775 5772 5769 5765 5762 5758 5754 5750 5746 5743 5739 5736 5733 5730 5726 5723 5721
5781 5784 5786 5788 5790 5792 5793 5794 5796 5796 5796 5797 5797 5797 5796 5796 5795 5793 5791 5789 5787 5785 5783 5780 5777 5774 5770 5767 5764 5760 5756 5753 5749 5745 5742 5738 5734 5731 5727 5724 5721 5718 5715 5712
5774 5777 5779 5781 5783 5785 5786 5787 5788 5789 5790 5790 5790 5789 5789 5788 5787 5785 5783 5781 5779 5777 5774 5771 5768 5765 5761 5758 5754 5751 5747 5744 5740 5737 5733 5729 5726 5722 5719 5715 5712 5709 5707 5704
5768 5770 5772 5774 5776 5777 5779 5780 5781 5782 5782 5782 5782 5781 5781 5780 5778 5777 5775 5773 5771 5768 5765 5763 5759 5756 5753 5749 5745 5742 5738 5735 5731 5728 5724 5721 5717 5714 5710 5707 5704 5701 5699 5696
5761 5763 5765 5767 5768 5770 5771 5772 5773 5774 5774 5774 5774 5773 5773 5772 5770 5769 5767 5765 5762 5760 5757 5754 5751 5747 5743 5740 5736 5732 5729 5726 5722 5719 5716 5712 5709 5706 5703 5700 5697 5694 5691 5688
5754 5756 5758 5759 5761 5762 5764 5764 5765 5765 5766 5766 5766 5765 5764 5763 5762 5761 5759 5757 5754 5752 5749 5745 5742 5738 5735 5731 5728 5724 5720 5717 5714 5711 5708 5705 5701 5698 5695 5692 5689 5686 5683 5681
5747 5749 5751 5752 5754 5755 5756 5757 5757 5757 5758 5758 5758 5757 5756 5755 5754 5752 5750 5748 5746 5743 5740 5737 5734 5730 5727 5723 5720 5716 5713 5710 5707 5703 5700 5697 5694 5691 5688 5685 5682 5679 5676 5674
5740 5742 5744 5745 5746 5747 5748 5749 5749 5750 5750 5750 5750 5749 5748 5747 5746 5744 5742 5740 5738 5735 5732 5729 5726 5723 5719 5716 5712 5709 5706 5703 5699 5696 5693 5690 5687 5684 5681 5678 5675 5672 5670 5667
5734 5735 5737 5738 5739 5740 5741 5741 5742 5742 5742 5742 5741 5741 5740 5739 5737 5736 5734 5732 5730 5727 5725 5722 5719 5716 5712 5709 5706 5702 5699 5696 5693 5689 5686 5683 5680 5677 5674 5671 5669 5666 5663 5661
5727 5728 5730 5731 5732 5732 5733 5733 5734 5734 5734 5734 5733 5732 5732 5731 5729 5728 5727 5725 5722 5720 5717 5714 5712 5709 5706 5702 5699 5696 5693 5690 5686 5683 5680 5677 5674 5671 5668 5665 5662 5660 5657 5655
5720 5722 5723 5724 5724 5725 5725 5726 5726 5726 5726 5725 5725 5724 5724 5723 5721 5720 5718 5717 5715 5712 5710 5707 5705 5702 5699 5696 5693 5690 5687 5684 5680 5677 5674 5671 5668 5665 5663 5660 5657 5654 5651 5649
5714 5715 5716 5717 5718 5718 5718 5718 5718 5719 5719 5718 5718 5717 5716 5715 5714 5713 5711 5709 5707 5705 5703 5700 5698 5695 5692 5690 5687 5684 5681 5677 5674 5671 5668 5665 5663 5660 5657 5654 5651 5648 5646 5643
5708 5709 5710 5711 5711 5712 5712 5712 5712 5712 5712 5712 5711 5710 5709 5708 5707 5705 5704 5702 5700 5698 5696 5694 5691 5688 5686 5683 5680 5677 5674 5671 5668 5665 5663 5660 5657 5655 5652 5649 5646 5643 5640 5637
5703 5704 5705 5705 5705 5706 5706 5706 5706 5706 5706 5705 5704 5704 5702 5701 5700 5698 5697 5695 5693 5691 5689 5687 5684 5682 5679 5676 5674 5671 5668 5665 5662 5660 5657 5654 5651 5649 5646 5643 5640 5637 5634 5631